VLG7QQ LEZL-LEBL

Flight info

Callsign VLG7QQ
Flight time 1h 22m
Altitude 30000
Route HIJ3R HIJ M30 PARKA N858 TLD L184 RBO N870 PONEN T600 CASPE CASPE2W
Aircraft A320/M-SDE3FGHIRWY/LB1

Departure

Time 2026-04-18 08:32
Airport Seville Airport (LEZL)

Arrival

Time 2026-04-18 09:55
Airport Josep Tarradellas Barcelona-El Prat Airport (LEBL)
Time Latitude Longitude Altitude Speed Heading
2026-04-18 08:07 37.42125 -5.90064 94 ft 0 kts 354°
2026-04-18 08:25 37.42104 -5.90061 95 ft 4 kts 345°
2026-04-18 08:26 37.42079 -5.90049 93 ft 4 kts 328°
2026-04-18 08:26 37.42059 -5.90028 93 ft 4 kts 301°
2026-04-18 08:26 37.42052 -5.90004 94 ft 0 kts 272°
2026-04-18 08:28 37.42052 -5.90007 94 ft 2 kts 272°
2026-04-18 08:29 37.42053 -5.90039 95 ft 6 kts 271°
2026-04-18 08:29 37.42030 -5.90092 95 ft 9 kts 201°
2026-04-18 08:29 37.41983 -5.90137 95 ft 11 kts 256°
2026-04-18 08:29 37.41980 -5.90282 95 ft 20 kts 270°
2026-04-18 08:30 37.41979 -5.90472 94 ft 24 kts 270°
2026-04-18 08:30 37.41979 -5.90698 93 ft 28 kts 270°
2026-04-18 08:30 37.41972 -5.90933 91 ft 23 kts 250°
2026-04-18 08:30 37.41889 -5.91122 93 ft 17 kts 238°
2026-04-18 08:31 37.41804 -5.91177 90 ft 14 kts 148°
2026-04-18 08:31 37.41789 -5.91125 91 ft 0 kts 94°
2026-04-18 08:31 37.41789 -5.91124 91 ft 0 kts 94°
2026-04-18 08:32 37.41786 -5.90987 95 ft 49 kts 91°
2026-04-18 08:32 37.41791 -5.90248 97 ft 118 kts 90°
2026-04-18 08:32 37.41794 -5.89002 212 ft 158 kts 89°
2026-04-18 08:32 37.41785 -5.87647 968 ft 154 kts 89°
2026-04-18 08:33 37.41761 -5.86300 1717 ft 155 kts 91°
2026-04-18 08:33 37.41727 -5.84911 2199 ft 169 kts 92°
2026-04-18 08:33 37.41695 -5.83340 2597 ft 189 kts 92°
2026-04-18 08:33 37.41685 -5.81610 3095 ft 207 kts 87°
2026-04-18 08:34 37.41938 -5.79704 3556 ft 235 kts 78°
2026-04-18 08:34 37.42390 -5.77624 4143 ft 258 kts 72°
2026-04-18 08:34 37.43422 -5.75688 4879 ft 280 kts 43°
2026-04-18 08:34 37.45120 -5.74404 5817 ft 287 kts 27°
2026-04-18 08:35 37.46942 -5.73367 6916 ft 289 kts 25°
2026-04-18 08:35 37.48798 -5.72366 7892 ft 292 kts 24°
2026-04-18 08:35 37.50667 -5.71337 8876 ft 295 kts 25°
2026-04-18 08:35 37.52551 -5.70269 9854 ft 297 kts 25°
2026-04-18 08:36 37.54459 -5.69156 10533 ft 312 kts 26°
2026-04-18 08:36 37.56494 -5.67944 10887 ft 334 kts 26°
2026-04-18 08:36 37.57900 -5.67097 11264 ft 342 kts 26°
2026-04-18 08:36 37.60066 -5.65783 12004 ft 349 kts 26°
2026-04-18 08:37 37.62271 -5.64442 12782 ft 354 kts 26°
2026-04-18 08:37 37.64502 -5.63080 13569 ft 359 kts 26°
2026-04-18 08:37 37.66769 -5.61695 14279 ft 364 kts 26°
2026-04-18 08:37 37.69060 -5.60300 15013 ft 367 kts 26°
2026-04-18 08:38 37.71371 -5.58895 15675 ft 371 kts 25°
2026-04-18 08:38 37.73706 -5.57478 16425 ft 373 kts 25°
2026-04-18 08:38 37.76055 -5.56052 17105 ft 377 kts 25°
2026-04-18 08:38 37.78426 -5.54609 17821 ft 379 kts 25°
2026-04-18 08:39 37.80812 -5.53156 18531 ft 382 kts 24°
2026-04-18 08:39 37.83221 -5.51682 19144 ft 386 kts 25°
2026-04-18 08:39 37.85646 -5.50197 19755 ft 390 kts 25°
2026-04-18 08:39 37.88101 -5.48695 20358 ft 394 kts 24°
2026-04-18 08:40 37.90580 -5.47177 20962 ft 397 kts 24°
2026-04-18 08:40 37.93083 -5.45648 21518 ft 401 kts 24°
2026-04-18 08:40 37.95606 -5.44105 22083 ft 405 kts 24°
2026-04-18 08:40 37.98156 -5.42543 22637 ft 408 kts 24°
2026-04-18 08:41 38.00722 -5.40969 23195 ft 412 kts 24°
2026-04-18 08:41 38.03315 -5.39376 23737 ft 416 kts 24°
2026-04-18 08:41 38.05925 -5.37770 24199 ft 419 kts 24°
2026-04-18 08:41 38.08558 -5.36147 24676 ft 422 kts 24°
2026-04-18 08:42 38.11206 -5.34514 25129 ft 425 kts 24°
2026-04-18 08:42 38.13872 -5.32872 25592 ft 428 kts 24°
2026-04-18 08:42 38.16555 -5.31218 26091 ft 429 kts 24°
2026-04-18 08:42 38.19250 -5.29551 26558 ft 432 kts 24°
2026-04-18 08:43 38.21959 -5.27875 27008 ft 435 kts 24°
2026-04-18 08:43 38.24692 -5.26187 27443 ft 438 kts 24°
2026-04-18 08:43 38.27441 -5.24490 27872 ft 441 kts 24°
2026-04-18 08:43 38.30210 -5.22781 28301 ft 444 kts 24°
2026-04-18 08:44 38.32995 -5.21059 28741 ft 447 kts 24°
2026-04-18 08:44 38.35801 -5.19323 29183 ft 450 kts 24°
2026-04-18 08:44 38.38625 -5.17575 29628 ft 453 kts 24°
2026-04-18 08:44 38.41471 -5.15809 30036 ft 456 kts 24°
2026-04-18 08:45 38.44318 -5.14036 30139 ft 451 kts 24°
2026-04-18 08:45 38.47104 -5.12324 30157 ft 439 kts 21°
2026-04-18 08:45 38.49970 -5.11078 30155 ft 433 kts 11°
2026-04-18 08:46 38.55895 -5.10478 30159 ft 426 kts 352°
2026-04-18 08:46 38.61802 -5.11098 30158 ft 426 kts 353°
2026-04-18 08:47 38.67710 -5.11696 30160 ft 426 kts 353°
2026-04-18 08:47 38.73623 -5.12295 30159 ft 426 kts 353°
2026-04-18 08:48 38.79535 -5.12889 30169 ft 426 kts 353°
2026-04-18 08:48 38.85415 -5.13485 30170 ft 427 kts 353°
2026-04-18 08:49 38.91334 -5.14097 30168 ft 427 kts 353°
2026-04-18 08:49 38.97273 -5.14381 30171 ft 430 kts
2026-04-18 08:49 39.00218 -5.13674 30172 ft 433 kts 14°
2026-04-18 08:50 39.03041 -5.12297 30176 ft 435 kts 25°
2026-04-18 08:50 39.08218 -5.08210 30170 ft 437 kts 31°
2026-04-18 08:51 39.13337 -5.03975 30174 ft 438 kts 31°
2026-04-18 08:51 39.18468 -4.99733 30178 ft 438 kts 31°
2026-04-18 08:52 39.23594 -4.95483 30176 ft 438 kts 31°
2026-04-18 08:52 39.28721 -4.91219 30175 ft 439 kts 31°
2026-04-18 08:53 39.33850 -4.86936 30172 ft 439 kts 31°
2026-04-18 08:53 39.38984 -4.82649 30172 ft 439 kts 31°
2026-04-18 08:54 39.44120 -4.78362 30178 ft 439 kts 31°
2026-04-18 08:54 39.49256 -4.74066 30181 ft 440 kts 31°
2026-04-18 08:55 39.54390 -4.69750 30173 ft 440 kts 31°
2026-04-18 08:55 39.59526 -4.65428 30172 ft 440 kts 31°
2026-04-18 08:56 39.64664 -4.61101 30176 ft 441 kts 31°
2026-04-18 08:56 39.69805 -4.56770 30168 ft 440 kts 31°
2026-04-18 08:57 39.77507 -4.50260 30180 ft 440 kts 31°
2026-04-18 08:57 39.82641 -4.45911 30179 ft 440 kts 31°
2026-04-18 08:58 39.87775 -4.41558 30180 ft 440 kts 31°
2026-04-18 08:58 39.92899 -4.37187 30181 ft 440 kts 32°
2026-04-18 08:59 39.97904 -4.32585 30191 ft 442 kts 41°
2026-04-18 08:59 40.02405 -4.27112 30186 ft 442 kts 42°
2026-04-18 09:00 40.06881 -4.21679 30190 ft 442 kts 41°
2026-04-18 09:00 40.11392 -4.16211 30190 ft 443 kts 41°
2026-04-18 09:01 40.15897 -4.10721 30194 ft 443 kts 42°
2026-04-18 09:01 40.20394 -4.05222 30198 ft 443 kts 42°
2026-04-18 09:02 40.24891 -3.99719 30195 ft 443 kts 42°
2026-04-18 09:02 40.29388 -3.94203 30193 ft 443 kts 42°
2026-04-18 09:03 40.33886 -3.88694 30195 ft 443 kts 42°
2026-04-18 09:03 40.38380 -3.83173 30200 ft 443 kts 42°
2026-04-18 09:04 40.42867 -3.77634 30212 ft 443 kts 42°
2026-04-18 09:04 40.47355 -3.72083 30202 ft 443 kts 42°
2026-04-18 09:05 40.51845 -3.66521 30204 ft 444 kts 42°
2026-04-18 09:05 40.56340 -3.60953 30204 ft 444 kts 42°
2026-04-18 09:06 40.60832 -3.55378 30207 ft 444 kts 42°
2026-04-18 09:06 40.65317 -3.49788 30206 ft 444 kts 42°
2026-04-18 09:07 40.69802 -3.44189 30204 ft 444 kts 42°
2026-04-18 09:07 40.74283 -3.38586 30199 ft 444 kts 42°
2026-04-18 09:08 40.78760 -3.32981 30203 ft 444 kts 42°
2026-04-18 09:08 40.83125 -3.27231 30202 ft 444 kts 50°
2026-04-18 09:09 40.86187 -3.20187 30203 ft 444 kts 70°
2026-04-18 09:09 40.87824 -3.12334 30201 ft 444 kts 76°
2026-04-18 09:10 40.89370 -3.04438 30193 ft 444 kts 76°
2026-04-18 09:10 40.90928 -2.96537 30199 ft 444 kts 76°
2026-04-18 09:11 40.92478 -2.88639 30199 ft 444 kts 76°
2026-04-18 09:11 40.94014 -2.80734 30197 ft 444 kts 76°
2026-04-18 09:12 40.95542 -2.72833 30196 ft 444 kts 76°
2026-04-18 09:12 40.97070 -2.64928 30194 ft 443 kts 77°
2026-04-18 09:13 40.98582 -2.57071 30195 ft 443 kts 77°
2026-04-18 09:13 41.00095 -2.49170 30196 ft 443 kts 77°
2026-04-18 09:14 41.01600 -2.41259 30192 ft 443 kts 77°
2026-04-18 09:14 41.03098 -2.33351 30192 ft 443 kts 77°
2026-04-18 09:15 41.04595 -2.25438 30191 ft 443 kts 77°
2026-04-18 09:15 41.06090 -2.17524 30191 ft 443 kts 77°
2026-04-18 09:16 41.07575 -2.09602 30190 ft 443 kts 77°
2026-04-18 09:16 41.09054 -2.01680 30190 ft 443 kts 77°
2026-04-18 09:17 41.10523 -1.93747 30190 ft 443 kts 77°
2026-04-18 09:17 41.11993 -1.85821 30196 ft 443 kts 77°
2026-04-18 09:18 41.13460 -1.77896 30199 ft 442 kts 77°
2026-04-18 09:18 41.14916 -1.69968 30199 ft 442 kts 77°
2026-04-18 09:19 41.16365 -1.62046 30198 ft 442 kts 77°
2026-04-18 09:19 41.17811 -1.54116 30198 ft 442 kts 77°
2026-04-18 09:20 41.19240 -1.46184 30203 ft 442 kts 77°
2026-04-18 09:20 41.20668 -1.38258 30202 ft 441 kts 77°
2026-04-18 09:21 41.22097 -1.30330 30204 ft 441 kts 77°
2026-04-18 09:21 41.23526 -1.22403 30204 ft 441 kts 77°
2026-04-18 09:22 41.24943 -1.14469 30197 ft 441 kts 77°
2026-04-18 09:22 41.26114 -1.07876 30199 ft 441 kts 77°
2026-04-18 09:23 41.27517 -0.99948 30201 ft 440 kts 77°
2026-04-18 09:23 41.29146 -0.90737 30200 ft 440 kts 77°
2026-04-18 09:24 41.30307 -0.84096 30196 ft 440 kts 77°
2026-04-18 09:24 41.31680 -0.76172 30191 ft 440 kts 77°
2026-04-18 09:25 41.33059 -0.68247 30195 ft 439 kts 77°
2026-04-18 09:25 41.34431 -0.60329 30196 ft 439 kts 77°
2026-04-18 09:26 41.35037 -0.52292 30197 ft 437 kts 95°
2026-04-18 09:26 41.34217 -0.44297 30187 ft 436 kts 99°
2026-04-18 09:27 41.33322 -0.36311 30187 ft 436 kts 99°
2026-04-18 09:27 41.32430 -0.28384 30189 ft 436 kts 99°
2026-04-18 09:28 41.31521 -0.20403 30186 ft 436 kts 100°
2026-04-18 09:28 41.30608 -0.12422 30189 ft 436 kts 100°
2026-04-18 09:29 41.29685 -0.04447 30196 ft 436 kts 100°
2026-04-18 09:29 41.28762 0.03532 29995 ft 436 kts 99°
2026-04-18 09:30 41.28300 0.07508 29709 ft 434 kts 99°
2026-04-18 09:30 41.27839 0.11449 29309 ft 429 kts 100°
2026-04-18 09:30 41.27389 0.15350 28767 ft 425 kts 98°
2026-04-18 09:30 41.27248 0.19254 28245 ft 422 kts 88°
2026-04-18 09:31 41.27604 0.23112 27864 ft 419 kts 78°
2026-04-18 09:31 41.28368 0.26841 27541 ft 418 kts 73°
2026-04-18 09:31 41.29185 0.30543 27205 ft 416 kts 73°
2026-04-18 09:31 41.29995 0.34229 26872 ft 414 kts 73°
2026-04-18 09:32 41.30796 0.37898 26534 ft 412 kts 73°
2026-04-18 09:32 41.31589 0.41541 26201 ft 409 kts 73°
2026-04-18 09:32 41.32378 0.45165 25864 ft 407 kts 73°
2026-04-18 09:32 41.33160 0.48766 25543 ft 404 kts 73°
2026-04-18 09:33 41.33937 0.52353 25217 ft 402 kts 73°
2026-04-18 09:33 41.34706 0.55913 24898 ft 399 kts 73°
2026-04-18 09:33 41.35452 0.59370 24576 ft 398 kts 73°
2026-04-18 09:33 41.36232 0.62986 24242 ft 396 kts 73°
2026-04-18 09:34 41.36980 0.66450 23930 ft 393 kts 73°
2026-04-18 09:34 41.37733 0.69942 23581 ft 391 kts 73°
2026-04-18 09:34 41.38482 0.73410 23255 ft 389 kts 73°
2026-04-18 09:34 41.39224 0.76864 22940 ft 387 kts 73°
2026-04-18 09:35 41.39958 0.80292 22630 ft 384 kts 73°
2026-04-18 09:35 41.40688 0.83698 22315 ft 381 kts 73°
2026-04-18 09:35 41.41409 0.87080 22010 ft 379 kts 73°
2026-04-18 09:35 41.42125 0.90450 21705 ft 376 kts 73°
2026-04-18 09:36 41.42838 0.93788 21402 ft 374 kts 73°
2026-04-18 09:36 41.43548 0.97111 21103 ft 372 kts 73°
2026-04-18 09:36 41.44250 1.00413 20799 ft 369 kts 73°
2026-04-18 09:36 41.44945 1.03696 20497 ft 367 kts 74°
2026-04-18 09:37 41.45634 1.06962 20194 ft 365 kts 74°
2026-04-18 09:37 41.46318 1.10207 19835 ft 362 kts 74°
2026-04-18 09:37 41.47000 1.13427 19464 ft 359 kts 74°
2026-04-18 09:37 41.47677 1.16620 19093 ft 356 kts 73°
2026-04-18 09:38 41.48344 1.19775 18728 ft 351 kts 73°
2026-04-18 09:38 41.49002 1.22897 18364 ft 348 kts 74°
2026-04-18 09:38 41.49650 1.25996 17976 ft 346 kts 73°
2026-04-18 09:38 41.50292 1.29074 17621 ft 344 kts 73°
2026-04-18 09:39 41.50933 1.32143 17273 ft 342 kts 73°
2026-04-18 09:39 41.51569 1.35191 16918 ft 340 kts 73°
2026-04-18 09:39 41.52202 1.38226 16568 ft 339 kts 74°
2026-04-18 09:39 41.52832 1.41245 16219 ft 337 kts 74°
2026-04-18 09:40 41.53455 1.44248 15873 ft 335 kts 73°
2026-04-18 09:40 41.54075 1.47242 15530 ft 334 kts 73°
2026-04-18 09:40 41.54602 1.50251 15181 ft 332 kts 81°
2026-04-18 09:40 41.54722 1.53324 14752 ft 332 kts 89°
2026-04-18 09:41 41.54742 1.56402 14308 ft 331 kts 89°
2026-04-18 09:41 41.54761 1.59463 13859 ft 329 kts 89°
2026-04-18 09:41 41.54781 1.62507 13401 ft 327 kts 89°
2026-04-18 09:41 41.54802 1.65535 12962 ft 325 kts 88°
2026-04-18 09:42 41.54822 1.68537 12544 ft 322 kts 89°
2026-04-18 09:42 41.54842 1.71518 12119 ft 320 kts 89°
2026-04-18 09:42 41.54858 1.74481 11699 ft 318 kts 89°
2026-04-18 09:42 41.54874 1.77430 11281 ft 317 kts 89°
2026-04-18 09:43 41.54890 1.80372 10859 ft 316 kts 89°
2026-04-18 09:43 41.54907 1.83300 10451 ft 315 kts 89°
2026-04-18 09:43 41.54921 1.86183 10278 ft 305 kts 89°
2026-04-18 09:43 41.54911 1.88940 10136 ft 296 kts 93°
2026-04-18 09:44 41.54604 1.91618 9985 ft 289 kts 99°
2026-04-18 09:44 41.54242 1.94261 9876 ft 290 kts 99°
2026-04-18 09:44 41.53878 1.96938 9747 ft 289 kts 99°
2026-04-18 09:44 41.53521 1.99580 9594 ft 289 kts 99°
2026-04-18 09:45 41.53166 2.02212 9445 ft 288 kts 99°
2026-04-18 09:45 41.52811 2.04843 9298 ft 288 kts 99°
2026-04-18 09:45 41.52456 2.07470 9148 ft 288 kts 99°
2026-04-18 09:45 41.52105 2.10099 9001 ft 287 kts 97°
2026-04-18 09:46 41.52025 2.12711 8855 ft 286 kts 86°
2026-04-18 09:46 41.52106 2.15360 8702 ft 286 kts 86°
2026-04-18 09:46 41.52183 2.18007 8550 ft 285 kts 86°
2026-04-18 09:46 41.52255 2.20616 8410 ft 277 kts 86°
2026-04-18 09:47 41.52222 2.23127 8277 ft 263 kts 99°
2026-04-18 09:47 41.51581 2.25340 7999 ft 254 kts 123°
2026-04-18 09:47 41.50363 2.27001 7555 ft 251 kts 147°
2026-04-18 09:47 41.48802 2.28029 6987 ft 251 kts 155°
2026-04-18 09:48 41.47423 2.29518 6313 ft 259 kts 127°
2026-04-18 09:48 41.46457 2.31478 5952 ft 249 kts 115°
2026-04-18 09:48 41.45927 2.33652 5465 ft 246 kts 103°
2026-04-18 09:48 41.45521 2.35856 4960 ft 243 kts 109°
2026-04-18 09:49 41.44705 2.37709 4818 ft 223 kts 134°
2026-04-18 09:49 41.43494 2.38850 4604 ft 209 kts 160°
2026-04-18 09:49 41.42086 2.39133 4374 ft 205 kts 187°
2026-04-18 09:49 41.40756 2.38556 4212 ft 201 kts 213°
2026-04-18 09:50 41.39759 2.37274 4064 ft 201 kts 238°
2026-04-18 09:50 41.39155 2.35599 3962 ft 202 kts 245°
2026-04-18 09:50 41.38579 2.33900 3752 ft 201 kts 245°
2026-04-18 09:50 41.38003 2.32201 3500 ft 202 kts 245°
2026-04-18 09:51 41.37426 2.30499 3237 ft 202 kts 245°
2026-04-18 09:51 41.36845 2.28788 2966 ft 204 kts 244°
2026-04-18 09:51 41.36258 2.27059 2695 ft 205 kts 243°
2026-04-18 09:51 41.35667 2.25323 2420 ft 206 kts 244°
2026-04-18 09:52 41.35073 2.23575 2145 ft 208 kts 244°
2026-04-18 09:52 41.34477 2.21823 1877 ft 208 kts 244°
2026-04-18 09:52 41.33890 2.20100 1621 ft 200 kts 244°
2026-04-18 09:52 41.33333 2.18462 1342 ft 187 kts 244°
2026-04-18 09:53 41.32833 2.16993 1136 ft 160 kts 244°
2026-04-18 09:53 41.32403 2.15737 916 ft 140 kts 246°
2026-04-18 09:53 41.32014 2.14597 740 ft 131 kts 245°
2026-04-18 09:53 41.31638 2.13496 567 ft 130 kts 245°
2026-04-18 09:54 41.31269 2.12414 393 ft 128 kts 244°
2026-04-18 09:54 41.30902 2.11332 224 ft 128 kts 244°
2026-04-18 09:54 41.30534 2.10257 49 ft 128 kts 243°
2026-04-18 09:54 41.30195 2.09274 17 ft 96 kts 245°
2026-04-18 09:55 41.29990 2.08677 23 ft 46 kts 245°
2026-04-18 09:55 41.29886 2.08400 26 ft 31 kts 237°
2026-04-18 09:55 41.29757 2.08240 18 ft 24 kts 215°
2026-04-18 09:55 41.29653 2.08205 17 ft 13 kts 162°
2026-04-18 09:56 41.29551 2.08263 16 ft 18 kts 153°
2026-04-18 09:56 41.29434 2.08339 20 ft 20 kts 154°
2026-04-18 09:56 41.29303 2.08415 22 ft 21 kts 155°
2026-04-18 09:56 41.29173 2.08433 20 ft 20 kts 199°
2026-04-18 09:57 41.29054 2.08364 20 ft 16 kts 231°
2026-04-18 09:57 41.28999 2.08213 19 ft 15 kts 245°
2026-04-18 09:57 41.28988 2.08182 19 ft 3 kts 245°
2026-04-18 09:57 41.28975 2.08141 19 ft 7 kts 245°
2026-04-18 09:58 41.28950 2.08068 19 ft 11 kts 248°
2026-04-18 09:58 41.28980 2.08022 19 ft 9 kts 336°
2026-04-18 09:58 41.29006 2.08006 19 ft 2 kts 335°
2026-04-18 09:58 41.29014 2.08001 19 ft 0 kts 335°